YAOGAN-28

Last updated on Thu Oct 30 2025 00:02:31 GMT+0000 (Coordinated Universal Time)

1 41026U 15064A 25302.51129978 .00011485 00000+0 48089-3 0 9993 2 41026 97.2773 81.5946 0010060 278.8869 81.1229 15.23661770555510
UTC large
Height (km)
Speed (km/s)
/
Latitude / Longitude
Inclination (degrees)
Orbital Period (minutes)
Azimuth
Elevation
Range (km)
Doppler Factor

Next 0 passes for location: London (51.5072 / 0.1276)

Sorry there are no passes over London.